2019 TOA Stage 1 Standings

2019 TOA Stage 1 Standings

DivisionRankBibNameTeamGC+/-
Open Men16Michael Bouwkamp0:09:05Race Leader
Open Men2140Richard StevensGoldstream Sports0:10:1101:06.2
Open Men3143Zac ColeCRC Racing0:10:1301:07.4
Open Men410Justin NeffBeadedstream0:10:3301:28.2
Open Men5152James BassetteGoldstream Sports0:10:5001:44.6
Open Women129Sheryl LoanKaladi-Trek0:10:45Race Leader
Open Women242Amber StullChain Reaction0:11:1000:25.6
Open Women347Stacey Kolstad0:11:3300:48.1
Open Women411Kelsey Tranel0:11:3600:51.4
Open Women5158Camille Ala0:11:4501:00.6
Open Women670Christine Flanum0:11:4801:03.1
Open Women7155Briana LowenCRC Racing0:11:5601:11.3
Open Women8159Holly Martinson0:12:0901:24.9
Novice Men1141Mathew Burt0:12:23Race Leader
Novice Men2136Javier Festa0:12:3300:09.5
Novice Men3222David Duclos0:14:0601:42.7
Novice Men4139Terrance Pearson0:15:2603:03.1
Novice Men5137Daniel Parsons0:16:0603:42.8
Intermediate Men1117David StanfieldTeam CPR0:10:38Race Leader
Intermediate Men28David HenkeZipRacing0:10:4400:06.2
Intermediate Men343Tom SchultzZipRacing0:10:5400:16.1
Intermediate Men4163Erik Swanson0:10:5500:16.8
Intermediate Men5142Donovan CampDon Solo0:10:5500:17.3
Intermediate Men6200Constantine Savostin0:11:0800:30.1
Intermediate Men7148Alexander Kubitz0:11:2100:42.8
Intermediate Men8103James FredrickRevolution Racing0:11:3700:58.9
Intermediate Men9164Erik Carlson0:11:3700:59.5
Intermediate Men10145Mathew Melarvie0:12:1801:40.5
Intermediate Men11149Lee WeilkertUSAF0:14:1003:32.1
Intermediate/45 + Women1113Rose GarnerSpeedway0:11:47Race Leader
Intermediate/45 + Women2175Joanne AllanChain Reaction0:11:5900:12.0
Intermediate/45 + Women3153Cadence StullChain Reaction0:12:1100:24.5
Intermediate/45 + Women4154Ashley MattsonBeadedstream0:12:1800:30.9
Intermediate/45 + Women592Stacy Steinberg0:12:5501:07.7
Intermediate/45 + Women6172Natasha GrahamBeadedstream0:13:0401:16.9
Intermediate/45 + Women7225Kristin Riall0:13:1001:22.7
Intermediate/45 + Women8236Emma HaddixBeadedstream0:14:0902:22.4
Master 45 + Men164Erik OstbergKaladi-Trek0:10:13Race Leader
Master 45 + Men275Bill FlemingKaladi-Trek0:10:1800:05.5
Master 45 + Men369Tom PeichelKaladi-Trek0:10:2000:07.1
Master 45 + Men454Michael WheatallWTF0:10:3900:26.1
Master 45 + Men556Tim Lawrence0:10:4800:35.2
Master 45 + Men6147Patrick CrabbQuick & Dirty0:11:1601:03.4
Master 45 + Men780Matt TabinorKaladi-Trek0:11:2501:12.2
Master 45 + Men867Jeffrey Thurston0:11:4801:35.0
Master 45 + Men867Jeffrey Thurston0:11:4801:35.0
Master 45 + Men9102Jonathan Schultz0:12:0301:50.6
Novice / 60+ Women1138Linda BarnackSmashfest Queen0:13:19Race Leader
Novice / 60+ Women2238Heidi Swanson0:13:3700:18.3
Novice / 60+ Women3214Sanjana Greenhill0:13:5800:39.0
Novice / 60+ Women4106Cara FoxBeadedstream0:14:1200:53.5
Novice / 60+ Women5269Lesley Yamauchi0:14:1700:58.4
Novice / 60+ Women6221Kim ResheskeBeadedstream0:14:2201:02.9
Novice / 60+ Women7211Nina Wladkowski0:14:2501:06.7
Novice / 60+ Women8229Karen Lewis0:14:3601:17.3
Novice / 60+ Women9261Robin Cope0:14:3901:20.4
Novice / 60+ Women10260Debra KinnBeadedstream0:14:5701:37.9
Novice / 60+ Women11210Kristin Amstrup0:15:5802:39.4
Novice Men1141Mathew Burt0:12:23Race Leader
Novice Men2136Javier Festa0:12:3300:09.5
Novice Men3222David Duclos0:14:0601:42.7
Novice Men4139Terrance Pearson0:15:2603:03.1
Novice Men5137Daniel Parsons0:16:0603:42.8
Master 60 + Men1166Matt Claman0:11:31Race Leader
Master 60 + Men276Tol Fishburn0:12:0600:34.4
Master 60 + Men3206Bill Mendenhall0:13:4502:13.7
Master 60 + Men4144Rick Pollock0:13:5202:20.3